Regional Weather Roundup
Issued by NWS

Home | Current Version | Previous Version | Text Only | Print | Product List | Glossary Off
Versions: 1 2 3 4 5 6 7 8 9 10 11 12 13 14 15 16 17 18 19 20 21 22 23 24 25 26 27 28 29 30 31 32 33 34 35 36 37 38 39 40 41 42 43 44 45 46 47 48 49 50

088
ASUS45 KBOU 251310
RWRCO

WEATHER ROUNDUP FOR COLORADO
NATIONAL WEATHER SERVICE PUEBLO CO
700 AM MDT WED APR 25 2018

NOTE: "FAIR" INDICATES FEW OR NO CLOUDS BELOW 12000 FEET WITH NO
SIGNIFICANT WEATHER AND/OR OBSTRUCTIONS TO VISIBILITY.

COZ001>005-013-030-031-251400-
...NORTHWEST COLORADO...

CITY           SKY/WX    TMP DP  RH WIND       PRES   REMARKS
CRAIG          CLEAR     22  19  89 E3        30.40F
HAYDEN         CLEAR     24  19  81 E9        30.41S WCI  14
MEEKER         CLEAR     23  18  81 CALM      30.40R
RABBIT EARS PA NOT AVBL
STEAMBOAT SPGS FAIR      23  20  89 CALM      30.40S
WALDEN         FAIR      18  12  79 SE6       30.41S WCI   9
$$

COZ006>008-011-251400-
...WEST CENTRAL VALLEYS...

CITY           SKY/WX    TMP DP  RH WIND       PRES   REMARKS
GRAND JUNCTION CLEAR     39  18  42 CALM      30.33S
MONTROSE       CLEAR     29  20  69 S8        30.38R WCI  21
EAGLE          CLEAR     25  21  85 CALM      30.44R
RIFLE          CLEAR     29  24  82 CALM      30.39R
DELTA          NOT AVBL
NUCLA          FAIR      34  14  44 SE7       30.34R WCI  28
$$

COZ017>023-064>068-251400-
...SOUTHWEST COLORADO...

CITY           SKY/WX    TMP DP  RH WIND       PRES   REMARKS
DURANGO        CLEAR     37  16  42 N7        30.25R
CORTEZ         CLEAR     31  12  45 E8        30.23R WCI  23
PAGOSA SPRINGS FAIR      28  14  55 CALM      30.31R
TELLURIDE      CLEAR     29  14  52 SE8       30.35S WCI  21
WOLF CREEK PAS CLEAR     27  -9  20 N8        30.46S WCI  18
$$

COZ009-010-012-014-032>034-037-058>063-251400-
...CENTRAL COLORADO...

CITY           SKY/WX    TMP DP  RH WIND       PRES   REMARKS
ASPEN          CLEAR     24  16  71 SW7       30.38R WCI  16
BUENA VISTA    FAIR      25  23  92 CALM      30.38S FOG
COPPER MTN     NOT AVBL
BERTHOUD PASS  FAIR      10   0  61 N7        30.39R WCI   0
COTTONWOOD PAS CLEAR     32  14  47 NW3       30.37R
GUNNISON       CLEAR     22  14  71 N3        30.41R
KREMMLING      CLEAR     25  21  86 CALM      30.45R
LEADVILLE      CLEAR     16  12  84 NE6       30.38S WCI   7
MONARCH PASS   CLEAR     23  -9  23 NW8       30.51S WCI  14
SALIDA         FAIR      26  23  87 W3        30.46R
SUNLIGHT       CLEAR     21  12  68 E5        30.44R WCI  15
WILKERSON PASS CLEAR     21  12  68 N12       30.40R WCI   9
$$

COZ069>075-251400-
...SAN LUIS VALLEY/SANGRE DE CRISTO MOUNTAINS...

CITY           SKY/WX    TMP DP  RH WIND       PRES   REMARKS
ALAMOSA        PTCLDY    24  20  84 SE5       30.34R WCI  18
DEL NORTE      FAIR      25  15  67 SW7       30.35R WCI  17
LA VETA PASS   CLEAR     25  19  80 SW9       30.47R WCI  15
SAGUACHE       NOT AVBL
$$

COZ035-036-038>040-251400-
...NORTHERN COLORADO FRONT RANGE...

CITY           SKY/WX    TMP DP  RH WIND       PRES   REMARKS
DENVER INTL AP PTCLDY    32  26  78 S8        30.34S WCI  25
DMNS CITY PARK NOT AVBL
AURORA         PTCLDY    30  30  99 S7        30.35S WCI  24
FRONT RANGE AP FAIR      32  27  83 SE6       30.36S WCI  26
ERIE MUNI ARPT FAIR      31  29  93 CALM      30.40F
BOULDER MUN AP FAIR      32  28  86 SW3       30.34F
CENTENNIAL     CLEAR     29  27  92 S3        30.35R
BROOMFIELD     PTCLDY    30  28  93 SW3       30.34F
LOVELAND       CLEAR     31  28  89 CALM      30.36R
LONGMONT       FAIR      31  28  86 CALM      30.37S
$$

COZ041-046-047-076>085-087-088-251400-
...PIKES PEAK/PALMER DIVIDE AND SOUTHERN FOOTHILLS...

CITY           SKY/WX    TMP DP  RH WIND       PRES   REMARKS
COLO. SPRINGS  MOCLDY    28  25  88 N6        30.36R WCI  22
A. F. ACADEMY  PTCLDY    22  21  97 N8        30.35S WCI  13
SCHRIEVER AFB  NOT AVBL
CHEYENNE MTN   NOT AVBL
ELLICOTT         N/A    N/A N/A N/A NW3       30.35R
FALCON         FAIR      26  24  93 CALM      30.36S
FORT CARSON    CLEAR     31  30  97 NW3       30.35R
LIMON          CLEAR     28  25  88 NW5       30.36R WCI  23
MONUMENT HILL  CLEAR     21  19  93 S7        30.36R FOG     WCI  13
CANON CITY     FAIR      32  30  93 W6        30.37R WCI  26
WALSENBURG     FAIR      21  21 100 MISG      30.37R
TRINIDAD       CLEAR     29  28  96 SW5       30.38R WCI  24
$$

COZ042>045-048>051-090-091-251400-
...NORTHEAST COLORADO...

CITY           SKY/WX    TMP DP  RH WIND       PRES   REMARKS
GREELEY ARPT   CLEAR     30  27  88 CALM      30.37S
AKRON          SUNNY     29  28  96 W6        30.35R WCI  23
BURLINGTON     SUNNY     31  28  89 NW8       30.35S WCI  23
WRAY           FAIR      32  30  93 NW5       30.36F WCI  27
YUMA           NOT AVBL
STERLING       NOT AVBL
HOLYOKE        FAIR      34  30  86 W8        30.36R WCI  27
FORT MORGAN    FAIR      28  26  91 CALM      30.37S
$$

COZ086-089-092>099-251400-
...SOUTHEAST COLORADO...

CITY           SKY/WX    TMP DP  RH WIND       PRES   REMARKS
PUEBLO         CLEAR     34  32  92 N5        30.37R WCI  30
LA JUNTA       CLEAR     35  32  88 W8        30.38R WCI  29
LAMAR          MOSUNNY   33  31  92 SW3       30.37R
SPRINGFIELD      N/A     34  33  96 NW13      30.34R WCI  25
$$





USA.gov is the U.S. government's official web portal to all federal, state and local government web resources and services.